Time,TemperatureF,DewpointF,PressureIn,WindDirection,WindDirectionDegrees,WindSpeedMPH,WindSpeedGustMPH,Humidity,HourlyPrecipIn,Conditions,Clouds,dailyrainin,SoftwareType,DateUTC
2013-02-07 00:03:00,57.0,54.5,30.09,East,93,0.0,2.0,91,0.00,,,0.00,meteohub,2013-02-07 06:03:00,
2013-02-07 00:08:00,57.0,54.5,30.08,East,93,0.0,0.0,91,0.00,,,0.00,meteohub,2013-02-07 06:08:00,
2013-02-07 00:13:00,56.8,54.3,30.08,East,93,0.0,0.0,91,0.00,,,0.00,meteohub,2013-02-07 06:13:00,
2013-02-07 00:19:00,56.8,54.3,30.09,East,93,0.0,0.0,91,0.00,,,0.00,meteohub,2013-02-07 06:19:00,
2013-02-07 00:24:00,56.8,54.3,30.08,East,93,0.0,0.0,91,0.00,,,0.00,meteohub,2013-02-07 06:24:00,
2013-02-07 00:29:00,56.8,54.3,30.08,East,93,0.0,0.0,91,0.00,,,0.00,meteohub,2013-02-07 06:29:00,
2013-02-07 00:34:00,56.8,54.3,30.07,East,93,2.0,2.0,91,0.00,,,0.00,meteohub,2013-02-07 06:34:00,
2013-02-07 00:39:00,56.5,54.0,30.06,East,97,1.0,2.0,91,0.00,,,0.00,meteohub,2013-02-07 06:39:00,
2013-02-07 00:44:00,56.5,54.0,30.06,East,97,1.0,2.0,91,0.00,,,0.00,meteohub,2013-02-07 06:44:00,
2013-02-07 00:50:00,56.5,54.0,30.06,East,82,0.0,3.0,91,0.00,,,0.00,meteohub,2013-02-07 06:50:00,
2013-02-07 00:55:00,56.7,54.3,30.05,East,87,0.0,3.0,92,0.00,,,0.00,meteohub,2013-02-07 06:55:00,
2013-02-07 01:00:00,56.8,54.5,30.05,East,95,1.0,5.0,92,0.00,,,0.00,meteohub,2013-02-07 07:00:00,
2013-02-07 01:05:00,57.2,54.7,30.05,East,82,0.0,5.0,91,0.00,,,0.00,meteohub,2013-02-07 07:05:00,
2013-02-07 01:10:00,57.4,54.9,30.05,East,83,0.0,5.0,91,0.00,,,0.00,meteohub,2013-02-07 07:10:00,
2013-02-07 01:15:00,57.7,54.9,30.05,East,84,1.0,4.0,90,0.00,,,0.00,meteohub,2013-02-07 07:15:00,
2013-02-07 01:20:00,57.9,55.0,30.05,East,83,0.0,2.0,90,0.00,,,0.00,meteohub,2013-02-07 07:20:00,
2013-02-07 01:25:00,57.9,55.0,30.05,East,84,0.0,2.0,90,0.00,,,0.00,meteohub,2013-02-07 07:25:00,
2013-02-07 01:31:00,57.9,55.0,30.05,East,84,0.0,2.0,90,0.00,,,0.00,meteohub,2013-02-07 07:31:00,
2013-02-07 01:36:00,57.9,55.0,30.05,East,83,0.0,2.0,90,0.00,,,0.00,meteohub,2013-02-07 07:36:00,
2013-02-07 01:41:00,58.1,55.2,30.06,East,83,0.0,1.0,90,0.00,,,0.00,meteohub,2013-02-07 07:41:00,
2013-02-07 01:46:00,58.1,55.2,30.06,East,83,0.0,1.0,90,0.00,,,0.00,meteohub,2013-02-07 07:46:00,
2013-02-07 01:51:00,58.3,55.4,30.05,East,83,1.0,0.0,90,0.00,,,0.00,meteohub,2013-02-07 07:51:00,
2013-02-07 01:56:00,58.1,55.2,30.06,East,84,0.0,2.0,90,0.00,,,0.00,meteohub,2013-02-07 07:56:00,
2013-02-07 02:02:00,58.1,55.2,30.06,East,83,0.0,2.0,90,0.00,,,0.00,meteohub,2013-02-07 08:02:00,
2013-02-07 02:07:00,58.1,55.2,30.06,East,83,1.0,2.0,90,0.00,,,0.00,meteohub,2013-02-07 08:07:00,
2013-02-07 02:12:00,58.1,55.2,30.05,East,88,3.0,3.0,90,0.00,,,0.00,meteohub,2013-02-07 08:12:00,
2013-02-07 02:17:00,57.9,55.0,30.04,East,91,3.0,3.0,90,0.00,,,0.00,meteohub,2013-02-07 08:17:00,
2013-02-07 02:22:00,57.9,55.0,30.04,East,87,3.0,6.0,90,0.00,,,0.00,meteohub,2013-02-07 08:22:00,
2013-02-07 02:27:00,58.1,55.2,30.04,East,89,3.0,7.0,90,0.00,,,0.00,meteohub,2013-02-07 08:27:00,
2013-02-07 02:32:00,58.1,55.2,30.03,East,90,5.0,7.0,90,0.00,,,0.00,meteohub,2013-02-07 08:32:00,
2013-02-07 02:37:00,58.1,55.2,30.03,ENE,71,2.0,7.0,90,0.00,,,0.00,meteohub,2013-02-07 08:37:00,
2013-02-07 02:42:00,58.1,55.4,30.03,ENE,62,3.0,6.0,91,0.00,,,0.00,meteohub,2013-02-07 08:42:00,
2013-02-07 02:47:00,57.9,55.2,30.03,East,86,2.0,6.0,91,0.00,,,0.00,meteohub,2013-02-07 08:47:00,
2013-02-07 02:52:00,57.9,55.2,30.02,ENE,76,3.0,5.0,91,0.00,,,0.00,meteohub,2013-02-07 08:52:00,
2013-02-07 02:57:00,57.9,55.2,30.01,NE,38,0.0,5.0,91,0.00,,,0.00,meteohub,2013-02-07 08:57:00,
2013-02-07 03:02:00,57.7,55.2,30.01,East,89,1.0,5.0,91,0.00,,,0.00,meteohub,2013-02-07 09:02:00,
2013-02-07 03:07:00,57.7,55.2,30.01,NE,37,0.0,6.0,91,0.00,,,0.00,meteohub,2013-02-07 09:07:00,
2013-02-07 03:12:00,57.7,55.2,30.01,ENE,75,2.0,6.0,91,0.00,,,0.00,meteohub,2013-02-07 09:12:00,
2013-02-07 03:17:00,57.7,55.2,30.01,East,85,3.0,6.0,91,0.00,,,0.00,meteohub,2013-02-07 09:17:00,
2013-02-07 03:22:00,57.7,55.2,30.01,ENE,59,4.0,6.0,91,0.00,,,0.00,meteohub,2013-02-07 09:22:00,
2013-02-07 03:27:00,57.7,55.4,30.01,East,91,5.0,5.0,92,0.00,,,0.00,meteohub,2013-02-07 09:27:00,
2013-02-07 03:32:00,57.7,55.4,30.01,East,90,2.0,7.0,92,0.00,,,0.00,meteohub,2013-02-07 09:32:00,
2013-02-07 03:37:00,57.7,55.4,30.00,ENE,74,3.0,7.0,92,0.00,,,0.00,meteohub,2013-02-07 09:37:00,
2013-02-07 03:42:00,57.7,55.4,29.99,ENE,63,4.0,7.0,92,0.00,,,0.00,meteohub,2013-02-07 09:42:00,
2013-02-07 03:47:00,57.7,55.4,29.99,ESE,116,4.0,8.0,92,0.00,,,0.00,meteohub,2013-02-07 09:47:00,
2013-02-07 03:52:00,57.9,55.9,29.99,East,95,7.0,9.0,93,0.00,,,0.00,meteohub,2013-02-07 09:52:00,
2013-02-07 03:58:00,57.9,55.9,29.99,ESE,104,4.0,9.0,93,0.00,,,0.00,meteohub,2013-02-07 09:58:00,
2013-02-07 04:03:00,57.9,55.9,30.00,East,83,5.0,9.0,93,0.00,,,0.00,meteohub,2013-02-07 10:03:00,
2013-02-07 04:08:00,57.9,55.9,30.00,East,91,2.0,8.0,93,0.01,,,0.01,meteohub,2013-02-07 10:08:00,
2013-02-07 04:13:00,57.9,55.9,30.01,ESE,118,2.0,8.0,93,0.01,,,0.01,meteohub,2013-02-07 10:13:00,
2013-02-07 04:18:00,57.9,55.9,30.01,East,93,2.0,7.0,93,0.01,,,0.01,meteohub,2013-02-07 10:18:00,
2013-02-07 04:23:00,57.7,55.8,30.01,East,96,3.0,6.0,93,0.01,,,0.01,meteohub,2013-02-07 10:23:00,
2013-02-07 04:28:00,57.7,55.8,30.00,East,97,3.0,6.0,93,0.01,,,0.01,meteohub,2013-02-07 10:28:00,
2013-02-07 04:34:00,57.7,55.9,30.00,East,91,5.0,6.0,94,0.02,,,0.02,meteohub,2013-02-07 10:34:00,
2013-02-07 04:39:00,57.7,55.9,30.00,East,82,2.0,7.0,94,0.03,,,0.03,meteohub,2013-02-07 10:39:00,
2013-02-07 04:44:00,57.7,55.9,30.00,East,91,2.0,7.0,94,0.03,,,0.03,meteohub,2013-02-07 10:44:00,
2013-02-07 04:49:00,57.7,55.9,30.00,NE,47,3.0,7.0,94,0.03,,,0.03,meteohub,2013-02-07 10:49:00,
2013-02-07 04:54:00,57.7,56.3,30.00,East,92,1.0,7.0,95,0.03,,,0.03,meteohub,2013-02-07 10:54:00,
2013-02-07 04:59:00,57.7,56.3,30.00,East,88,2.0,5.0,95,0.03,,,0.03,meteohub,2013-02-07 10:59:00,
2013-02-07 05:04:00,57.7,56.3,29.99,East,93,2.0,5.0,95,0.04,,,0.04,meteohub,2013-02-07 11:04:00,
2013-02-07 05:09:00,57.7,56.3,29.99,East,95,5.0,5.0,95,0.03,,,0.04,meteohub,2013-02-07 11:09:00,
2013-02-07 05:15:00,57.7,56.3,29.99,East,98,8.0,8.0,95,0.04,,,0.05,meteohub,2013-02-07 11:15:00,
2013-02-07 05:20:00,57.7,56.3,29.98,ENE,78,8.0,9.0,95,0.04,,,0.05,meteohub,2013-02-07 11:20:00,
2013-02-07 05:25:00,57.7,56.3,29.98,East,90,8.0,11.0,95,0.04,,,0.06,meteohub,2013-02-07 11:25:00,
2013-02-07 05:30:00,57.7,56.3,29.98,East,93,8.0,11.0,95,0.03,,,0.06,meteohub,2013-02-07 11:30:00,
2013-02-07 05:35:00,57.7,56.3,29.97,ESE,102,7.0,11.0,95,0.03,,,0.06,meteohub,2013-02-07 11:35:00,
2013-02-07 05:40:00,57.7,56.3,29.96,East,79,7.0,11.0,95,0.03,,,0.06,meteohub,2013-02-07 11:40:00,
2013-02-07 05:45:00,57.7,56.7,29.96,East,91,7.0,14.0,96,0.03,,,0.06,meteohub,2013-02-07 11:45:00,
2013-02-07 05:51:00,57.9,56.8,29.96,East,87,7.0,14.0,96,0.03,,,0.06,meteohub,2013-02-07 11:51:00,
2013-02-07 05:56:00,57.7,56.7,29.97,East,79,5.0,14.0,96,0.04,,,0.07,meteohub,2013-02-07 11:56:00,
2013-02-07 06:01:00,57.9,56.8,29.96,ENE,73,8.0,10.0,96,0.03,,,0.07,meteohub,2013-02-07 12:01:00,
2013-02-07 06:06:00,57.9,56.8,29.96,ENE,70,5.0,11.0,96,0.03,,,0.07,meteohub,2013-02-07 12:06:00,
2013-02-07 06:11:00,57.9,56.8,29.96,East,97,8.0,11.0,96,0.02,,,0.07,meteohub,2013-02-07 12:11:00,
2013-02-07 06:16:00,57.9,56.8,29.96,East,90,10.0,11.0,96,0.03,,,0.08,meteohub,2013-02-07 12:16:00,
2013-02-07 06:21:00,57.9,56.8,29.95,East,79,5.0,10.0,96,0.02,,,0.08,meteohub,2013-02-07 12:21:00,
2013-02-07 06:27:00,57.9,56.8,29.95,East,97,5.0,10.0,96,0.02,,,0.08,meteohub,2013-02-07 12:27:00,
2013-02-07 06:32:00,57.9,56.8,29.95,East,79,5.0,10.0,96,0.02,,,0.08,meteohub,2013-02-07 12:32:00,
2013-02-07 06:37:00,57.9,56.8,29.95,East,91,3.0,8.0,96,0.02,,,0.08,meteohub,2013-02-07 12:37:00,
2013-02-07 06:42:00,57.9,56.8,29.95,ESE,106,3.0,8.0,96,0.02,,,0.08,meteohub,2013-02-07 12:42:00,
2013-02-07 06:47:00,58.1,57.0,29.95,East,93,6.0,8.0,96,0.02,,,0.08,meteohub,2013-02-07 12:47:00,
2013-02-07 06:52:00,58.3,57.2,29.95,East,96,5.0,8.0,96,0.03,,,0.09,meteohub,2013-02-07 12:52:00,
2013-02-07 06:57:00,58.3,57.2,29.95,ESE,107,2.0,9.0,96,0.02,,,0.09,meteohub,2013-02-07 12:57:00,
2013-02-07 07:02:00,58.5,57.4,29.94,East,100,6.0,9.0,96,0.02,,,0.09,meteohub,2013-02-07 13:02:00,
2013-02-07 07:07:00,58.5,57.4,29.94,East,95,6.0,9.0,96,0.03,,,0.10,meteohub,2013-02-07 13:07:00,
2013-02-07 07:12:00,58.3,57.2,29.94,East,86,7.0,11.0,96,0.03,,,0.10,meteohub,2013-02-07 13:12:00,
2013-02-07 07:17:00,58.3,57.2,29.94,East,89,9.0,13.0,96,0.03,,,0.11,meteohub,2013-02-07 13:17:00,
2013-02-07 07:22:00,58.3,57.2,29.94,ESE,102,4.0,13.0,96,0.03,,,0.11,meteohub,2013-02-07 13:22:00,
2013-02-07 07:27:00,58.3,57.2,29.93,East,91,7.0,13.0,96,0.03,,,0.11,meteohub,2013-02-07 13:27:00,
2013-02-07 07:32:00,58.3,57.2,29.93,East,83,10.0,15.0,96,0.03,,,0.11,meteohub,2013-02-07 13:32:00,
2013-02-07 07:37:00,58.3,57.2,29.93,East,97,5.0,15.0,96,0.03,,,0.11,meteohub,2013-02-07 13:37:00,
2013-02-07 07:42:00,58.5,57.4,29.92,ESE,107,7.0,16.0,96,0.05,,,0.13,meteohub,2013-02-07 13:42:00,
2013-02-07 07:47:00,58.5,57.4,29.92,ENE,73,5.0,16.0,96,0.05,,,0.13,meteohub,2013-02-07 13:47:00,
2013-02-07 07:52:00,58.5,57.4,29.92,East,97,9.0,16.0,96,0.04,,,0.13,meteohub,2013-02-07 13:52:00,
2013-02-07 07:57:00,58.6,57.6,29.91,East,80,5.0,14.0,96,0.05,,,0.14,meteohub,2013-02-07 13:57:00,
2013-02-07 08:02:00,58.6,57.6,29.92,ENE,75,5.0,13.0,96,0.05,,,0.14,meteohub,2013-02-07 14:02:00,
2013-02-07 08:07:00,58.6,57.6,29.91,East,93,3.0,12.0,96,0.04,,,0.14,meteohub,2013-02-07 14:07:00,
2013-02-07 08:12:00,58.6,57.6,29.91,ENE,58,3.0,12.0,96,0.05,,,0.15,meteohub,2013-02-07 14:12:00,
2013-02-07 08:17:00,58.6,57.6,29.92,East,85,3.0,9.0,96,0.04,,,0.15,meteohub,2013-02-07 14:17:00,
2013-02-07 08:22:00,58.6,57.6,29.93,East,79,2.0,9.0,96,0.05,,,0.16,meteohub,2013-02-07 14:22:00,
2013-02-07 08:27:00,58.8,57.7,29.93,ENE,73,4.0,9.0,96,0.07,,,0.18,meteohub,2013-02-07 14:27:00,
2013-02-07 08:32:00,58.8,57.7,29.94,NE,53,3.0,9.0,96,0.08,,,0.19,meteohub,2013-02-07 14:32:00,
2013-02-07 08:37:00,59.0,57.9,29.94,East,97,5.0,7.0,96,0.08,,,0.20,meteohub,2013-02-07 14:37:00,
2013-02-07 08:42:00,59.2,58.1,29.93,East,89,5.0,11.0,96,0.10,,,0.23,meteohub,2013-02-07 14:42:00,
2013-02-07 08:47:00,59.2,58.1,29.93,East,85,3.0,11.0,96,0.12,,,0.25,meteohub,2013-02-07 14:47:00,
2013-02-07 08:52:00,59.2,58.1,29.92,NE,44,3.0,11.0,96,0.13,,,0.27,meteohub,2013-02-07 14:52:00,
2013-02-07 08:57:00,59.2,58.1,29.90,ENE,75,5.0,8.0,96,0.17,,,0.31,meteohub,2013-02-07 14:57:00,
2013-02-07 09:02:00,59.2,58.1,29.89,East,85,5.0,8.0,96,0.19,,,0.33,meteohub,2013-02-07 15:02:00,
2013-02-07 09:07:00,59.2,58.1,29.90,ESE,106,4.0,9.0,96,0.22,,,0.36,meteohub,2013-02-07 15:07:00,
2013-02-07 09:12:00,59.2,58.1,29.88,ENE,73,4.0,9.0,96,0.23,,,0.38,meteohub,2013-02-07 15:12:00,
2013-02-07 09:17:00,59.2,58.1,29.89,ENE,72,4.0,9.0,96,0.24,,,0.39,meteohub,2013-02-07 15:17:00,
2013-02-07 09:22:00,59.2,58.1,29.91,NE,54,1.0,10.0,96,0.26,,,0.43,meteohub,2013-02-07 15:22:00,
2013-02-07 09:27:00,59.2,58.1,29.92,East,86,2.0,10.0,96,0.27,,,0.45,meteohub,2013-02-07 15:27:00,
2013-02-07 09:32:00,59.2,58.1,29.91,NE,39,2.0,8.0,96,0.27,,,0.46,meteohub,2013-02-07 15:32:00,
2013-02-07 09:37:00,59.2,58.1,29.92,East,94,0.0,6.0,96,0.30,,,0.51,meteohub,2013-02-07 15:37:00,
2013-02-07 09:42:00,59.2,58.1,29.93,NE,50,2.0,5.0,96,0.29,,,0.52,meteohub,2013-02-07 15:42:00,
2013-02-07 09:47:00,59.2,58.1,29.92,NE,46,1.0,5.0,96,0.31,,,0.57,meteohub,2013-02-07 15:47:00,
2013-02-07 09:52:00,59.2,58.1,29.94,NNE,14,0.0,4.0,96,0.39,,,0.67,meteohub,2013-02-07 15:52:00,
2013-02-07 09:57:00,59.2,58.3,29.94,North,359,1.0,4.0,97,0.44,,,0.71,meteohub,2013-02-07 15:57:00,
2013-02-07 10:02:00,59.2,58.3,29.95,South,187,3.0,4.0,97,0.45,,,0.79,meteohub,2013-02-07 16:02:00,
2013-02-07 10:07:00,59.2,58.3,29.95,WNW,293,0.0,3.0,97,0.54,,,0.91,meteohub,2013-02-07 16:07:00,
2013-02-07 10:12:00,58.8,57.9,29.96,SW,232,0.0,3.0,97,0.59,,,0.97,meteohub,2013-02-07 16:12:00,
2013-02-07 10:17:00,58.8,57.9,29.96,NW,314,3.0,3.0,97,0.67,,,1.07,meteohub,2013-02-07 16:17:00,
2013-02-07 10:22:00,58.6,57.7,29.92,East,91,10.0,10.0,97,0.76,,,1.19,meteohub,2013-02-07 16:22:00,
2013-02-07 10:27:00,58.6,57.7,29.83,East,94,13.0,13.0,97,0.81,,,1.26,meteohub,2013-02-07 16:27:00,
2013-02-07 10:33:00,58.6,57.7,29.83,ENE,66,5.0,17.0,97,0.92,,,1.39,meteohub,2013-02-07 16:33:00,
2013-02-07 10:38:00,58.8,57.9,29.83,East,96,8.0,17.0,97,0.93,,,1.44,meteohub,2013-02-07 16:38:00,
2013-02-07 10:43:00,59.0,58.1,29.86,ENE,69,4.0,17.0,97,0.90,,,1.44,meteohub,2013-02-07 16:43:00,
2013-02-07 10:48:00,59.2,58.3,29.89,NW,313,3.0,21.0,97,0.83,,,1.44,meteohub,2013-02-07 16:48:00,
2013-02-07 10:53:00,59.0,57.9,29.89,SW,218,1.0,21.0,96,0.75,,,1.44,meteohub,2013-02-07 16:53:00,
2013-02-07 10:58:00,59.0,57.9,29.88,WNW,301,0.0,21.0,96,0.70,,,1.45,meteohub,2013-02-07 16:58:00,
2013-02-07 11:03:00,59.2,58.1,29.89,North,359,2.0,9.0,96,0.64,,,1.46,meteohub,2013-02-07 17:03:00,
2013-02-07 11:08:00,59.2,58.1,29.89,NE,37,2.0,9.0,96,0.53,,,1.47,meteohub,2013-02-07 17:08:00,
2013-02-07 11:13:00,59.2,58.3,29.90,WNW,289,0.0,9.0,97,0.46,,,1.47,meteohub,2013-02-07 17:13:00,
2013-02-07 11:19:00,59.2,58.3,29.90,North,359,2.0,8.0,97,0.40,,,1.49,meteohub,2013-02-07 17:19:00,
2013-02-07 11:24:00,59.4,58.5,29.90,North,359,0.0,8.0,97,0.30,,,1.51,meteohub,2013-02-07 17:24:00,
2013-02-07 11:29:00,59.5,58.6,29.89,NE,44,2.0,8.0,97,0.18,,,1.51,meteohub,2013-02-07 17:29:00,
2013-02-07 11:34:00,59.5,58.6,29.88,NNE,17,4.0,4.0,97,0.10,,,1.52,meteohub,2013-02-07 17:34:00,
2013-02-07 11:39:00,60.3,59.4,29.87,North,359,2.0,7.0,97,0.09,,,1.53,meteohub,2013-02-07 17:39:00,
2013-02-07 11:44:00,60.4,59.5,29.86,NNE,30,3.0,7.0,97,0.09,,,1.53,meteohub,2013-02-07 17:44:00,
2013-02-07 11:49:00,60.6,59.7,29.86,NE,37,3.0,8.0,97,0.09,,,1.53,meteohub,2013-02-07 17:49:00,
2013-02-07 11:54:00,60.4,59.5,29.87,North,359,5.0,8.0,97,0.09,,,1.53,meteohub,2013-02-07 17:54:00,
2013-02-07 11:59:00,60.4,59.4,29.87,ENE,64,1.0,7.0,96,0.08,,,1.53,meteohub,2013-02-07 17:59:00,
2013-02-07 12:05:00,60.3,59.2,29.87,North,359,0.0,10.0,96,0.06,,,1.53,meteohub,2013-02-07 18:05:00,
2013-02-07 12:10:00,60.3,59.2,29.87,NNE,24,0.0,11.0,96,0.06,,,1.53,meteohub,2013-02-07 18:10:00,
2013-02-07 12:15:00,60.1,59.0,29.87,NNW,345,2.0,11.0,96,0.04,,,1.53,meteohub,2013-02-07 18:15:00,
2013-02-07 12:20:00,59.7,58.6,29.86,NNE,18,3.0,6.0,96,0.02,,,1.53,meteohub,2013-02-07 18:20:00,
2013-02-07 12:25:00,59.9,58.8,29.85,NE,35,3.0,6.0,96,0.01,,,1.53,meteohub,2013-02-07 18:25:00,
2013-02-07 12:30:00,60.1,59.0,29.85,NNE,25,0.0,6.0,96,0.01,,,1.53,meteohub,2013-02-07 18:30:00,
2013-02-07 12:35:00,60.3,59.2,29.86,NE,41,0.0,6.0,96,0.00,,,1.53,meteohub,2013-02-07 18:35:00,
2013-02-07 12:40:00,60.4,59.4,29.85,NNE,23,2.0,9.0,96,0.00,,,1.53,meteohub,2013-02-07 18:40:00,
2013-02-07 12:45:00,60.6,59.5,29.85,NE,48,1.0,9.0,96,0.00,,,1.53,meteohub,2013-02-07 18:45:00,
2013-02-07 12:51:00,61.2,60.1,29.84,NE,48,5.0,9.0,96,0.00,,,1.53,meteohub,2013-02-07 18:51:00,
2013-02-07 12:56:00,61.9,60.4,29.83,NE,44,4.0,7.0,95,0.00,,,1.53,meteohub,2013-02-07 18:56:00,
2013-02-07 13:01:00,62.2,60.3,29.82,ENE,62,7.0,13.0,93,0.00,,,1.53,meteohub,2013-02-07 19:01:00,
2013-02-07 13:06:00,63.0,61.0,29.82,ENE,68,5.0,13.0,93,0.00,,,1.53,meteohub,2013-02-07 19:06:00,
2013-02-07 13:11:00,63.3,61.0,29.81,NE,56,7.0,14.0,92,0.00,,,1.53,meteohub,2013-02-07 19:11:00,
2013-02-07 13:16:00,63.7,60.6,29.81,NE,45,8.0,15.0,90,0.00,,,1.53,meteohub,2013-02-07 19:16:00,
2013-02-07 13:21:00,63.3,60.1,29.79,ESE,120,8.0,15.0,89,0.00,,,1.53,meteohub,2013-02-07 19:21:00,
2013-02-07 13:26:00,63.7,60.1,29.80,East,90,8.0,19.0,88,0.00,,,1.53,meteohub,2013-02-07 19:26:00,
2013-02-07 13:31:00,64.2,61.2,29.81,NE,45,2.0,19.0,90,0.00,,,1.53,meteohub,2013-02-07 19:31:00,
2013-02-07 13:36:00,64.8,61.2,29.82,East,83,2.0,17.0,88,0.00,,,1.53,meteohub,2013-02-07 19:36:00,
2013-02-07 13:42:00,65.1,60.4,29.82,NE,39,1.0,16.0,85,0.00,,,1.53,meteohub,2013-02-07 19:42:00,
2013-02-07 13:47:00,65.7,61.7,29.82,NE,42,2.0,12.0,87,0.00,,,1.53,meteohub,2013-02-07 19:47:00,
2013-02-07 13:52:00,66.4,62.1,29.81,ESE,121,4.0,8.0,86,0.00,,,1.53,meteohub,2013-02-07 19:52:00,
2013-02-07 13:57:00,66.4,60.8,29.81,ENE,75,5.0,8.0,82,0.00,,,1.53,meteohub,2013-02-07 19:57:00,
2013-02-07 14:02:00,66.4,60.8,29.81,East,90,6.0,9.0,82,0.00,,,1.53,meteohub,2013-02-07 20:02:00,
2013-02-07 14:07:00,66.4,60.4,29.81,ESE,107,2.0,9.0,81,0.00,,,1.53,meteohub,2013-02-07 20:07:00,
2013-02-07 14:12:00,66.6,61.0,29.81,East,85,5.0,9.0,82,0.00,,,1.53,meteohub,2013-02-07 20:12:00,
2013-02-07 14:17:00,67.1,60.8,29.81,ENE,64,1.0,9.0,80,0.00,,,1.53,meteohub,2013-02-07 20:17:00,
2013-02-07 14:22:00,67.6,61.0,29.81,NE,56,2.0,8.0,79,0.00,,,1.53,meteohub,2013-02-07 20:22:00,
2013-02-07 14:27:00,68.0,60.8,29.81,ESE,104,0.0,7.0,78,0.00,,,1.53,meteohub,2013-02-07 20:27:00,
2013-02-07 14:32:00,68.4,61.9,29.81,SE,144,0.0,7.0,80,0.00,,,1.53,meteohub,2013-02-07 20:32:00,
2013-02-07 14:37:00,68.7,61.2,29.81,SE,125,2.0,7.0,77,0.00,,,1.53,meteohub,2013-02-07 20:37:00,
2013-02-07 14:42:00,69.3,61.3,29.81,ESE,111,0.0,7.0,76,0.00,,,1.53,meteohub,2013-02-07 20:42:00,
2013-02-07 14:47:00,70.2,61.9,29.81,West,264,3.0,4.0,75,0.00,,,1.53,meteohub,2013-02-07 20:47:00,
2013-02-07 14:52:00,70.0,61.7,29.81,WSW,239,1.0,4.0,75,0.00,,,1.53,meteohub,2013-02-07 20:52:00,
2013-02-07 14:57:00,70.5,60.3,29.81,West,274,1.0,4.0,70,0.00,,,1.53,meteohub,2013-02-07 20:57:00,
2013-02-07 15:02:00,70.7,60.4,29.81,NE,49,3.0,4.0,70,0.00,,,1.53,meteohub,2013-02-07 21:02:00,
2013-02-07 15:07:00,70.9,60.6,29.81,WNW,299,2.0,3.0,70,0.00,,,1.53,meteohub,2013-02-07 21:07:00,
2013-02-07 15:12:00,70.9,59.7,29.82,WNW,292,1.0,7.0,68,0.00,,,1.53,meteohub,2013-02-07 21:12:00,
2013-02-07 15:17:00,71.1,59.5,29.82,East,87,2.0,7.0,67,0.00,,,1.53,meteohub,2013-02-07 21:17:00,
2013-02-07 15:22:00,71.2,59.7,29.82,NNW,342,1.0,7.0,67,0.00,,,1.53,meteohub,2013-02-07 21:22:00,
2013-02-07 15:27:00,71.2,59.4,29.83,WNW,289,1.0,3.0,66,0.00,,,1.53,meteohub,2013-02-07 21:27:00,
2013-02-07 15:32:00,71.1,59.5,29.83,WNW,293,1.0,3.0,67,0.00,,,1.53,meteohub,2013-02-07 21:32:00,
2013-02-07 15:37:00,70.5,59.4,29.83,WNW,293,0.0,7.0,68,0.00,,,1.53,meteohub,2013-02-07 21:37:00,
2013-02-07 15:42:00,70.2,59.5,29.84,WNW,283,5.0,7.0,69,0.00,,,1.53,meteohub,2013-02-07 21:42:00,
2013-02-07 15:47:00,69.4,59.5,29.85,West,280,0.0,5.0,71,0.00,,,1.53,meteohub,2013-02-07 21:47:00,
2013-02-07 15:52:00,69.1,59.7,29.85,West,280,0.0,5.0,72,0.00,,,1.53,meteohub,2013-02-07 21:52:00,
2013-02-07 15:57:00,68.7,59.4,29.85,West,280,0.0,5.0,72,0.00,,,1.53,meteohub,2013-02-07 21:57:00,
2013-02-07 16:02:00,68.4,59.4,29.85,West,280,0.0,2.0,73,0.00,,,1.53,meteohub,2013-02-07 22:02:00,
2013-02-07 16:07:00,68.4,59.7,29.85,West,275,0.0,2.0,74,0.00,,,1.53,meteohub,2013-02-07 22:07:00,
2013-02-07 16:12:00,68.7,59.7,29.85,West,275,0.0,2.0,73,0.00,,,1.53,meteohub,2013-02-07 22:12:00,
2013-02-07 16:17:00,69.1,59.7,29.85,West,275,0.0,3.0,72,0.00,,,1.53,meteohub,2013-02-07 22:17:00,
2013-02-07 16:22:00,69.1,60.1,29.85,East,92,0.0,3.0,73,0.00,,,1.53,meteohub,2013-02-07 22:22:00,
2013-02-07 16:27:00,68.5,59.5,29.86,NNE,19,2.0,5.0,73,0.00,,,1.53,meteohub,2013-02-07 22:27:00,
2013-02-07 16:32:00,68.4,59.7,29.86,NNW,346,0.0,8.0,74,0.00,,,1.53,meteohub,2013-02-07 22:32:00,
2013-02-07 16:37:00,68.5,59.9,29.86,NW,308,1.0,8.0,74,0.00,,,1.53,meteohub,2013-02-07 22:37:00,
2013-02-07 16:42:00,68.5,59.9,29.86,NNW,337,0.0,8.0,74,0.00,,,1.53,meteohub,2013-02-07 22:42:00,
2013-02-07 16:48:00,68.5,59.9,29.85,ENE,62,0.0,3.0,74,0.00,,,1.53,meteohub,2013-02-07 22:48:00,
2013-02-07 16:53:00,68.2,59.5,29.85,ENE,61,0.0,3.0,74,0.00,,,1.53,meteohub,2013-02-07 22:53:00,
2013-02-07 16:58:00,67.8,59.5,29.86,ENE,61,0.0,3.0,75,0.00,,,1.53,meteohub,2013-02-07 22:58:00,
2013-02-07 17:03:00,67.5,59.5,29.86,ENE,61,0.0,3.0,76,0.00,,,1.53,meteohub,2013-02-07 23:03:00,
2013-02-07 17:08:00,66.9,59.5,29.86,North,354,0.0,2.0,77,0.00,,,1.53,meteohub,2013-02-07 23:08:00,
2013-02-07 17:13:00,66.6,59.5,29.86,North,354,0.0,2.0,78,0.00,,,1.53,meteohub,2013-02-07 23:13:00,
2013-02-07 17:18:00,66.0,59.0,29.86,North,354,0.0,2.0,78,0.00,,,1.53,meteohub,2013-02-07 23:18:00,
2013-02-07 17:23:00,65.7,59.0,29.86,North,354,0.0,1.0,79,0.00,,,1.53,meteohub,2013-02-07 23:23:00,
2013-02-07 17:28:00,65.3,59.0,29.87,NNW,339,1.0,1.0,80,0.00,,,1.53,meteohub,2013-02-07 23:28:00,
2013-02-07 17:34:00,64.9,59.0,29.87,NE,52,0.0,7.0,81,0.00,,,1.53,meteohub,2013-02-07 23:34:00,
2013-02-07 17:39:00,64.8,59.2,29.87,NE,50,0.0,7.0,82,0.00,,,1.53,meteohub,2013-02-07 23:39:00,
2013-02-07 17:44:00,64.6,59.7,29.88,NNE,14,0.0,7.0,84,0.00,,,1.53,meteohub,2013-02-07 23:44:00,
2013-02-07 17:49:00,64.0,59.2,29.88,NNW,329,1.0,3.0,84,0.00,,,1.53,meteohub,2013-02-07 23:49:00,
2013-02-07 17:54:00,63.7,59.0,29.88,NE,37,0.0,3.0,85,0.00,,,1.53,meteohub,2013-02-07 23:54:00,
2013-02-07 17:59:00,63.3,59.0,29.88,NW,306,0.0,4.0,86,0.00,,,1.53,meteohub,2013-02-07 23:59:00,
2013-02-07 18:04:00,63.1,58.8,29.88,NE,35,0.0,5.0,86,0.00,,,1.53,meteohub,2013-02-08 00:04:00,
2013-02-07 18:09:00,62.8,58.8,29.89,WNW,299,0.0,5.0,87,0.00,,,0.00,meteohub,2013-02-08 00:09:00,
2013-02-07 18:15:00,62.6,58.6,29.89,North,359,0.0,4.0,87,0.00,,,0.00,meteohub,2013-02-08 00:15:00,
2013-02-07 18:20:00,62.4,58.5,29.90,WNW,301,0.0,4.0,87,0.00,,,0.00,meteohub,2013-02-08 00:20:00,
2013-02-07 18:25:00,62.2,58.3,29.90,NNE,19,0.0,9.0,87,0.00,,,0.00,meteohub,2013-02-08 00:25:00,
2013-02-07 18:30:00,62.1,58.5,29.90,WNW,303,0.0,9.0,88,0.00,,,0.00,meteohub,2013-02-08 00:30:00,
2013-02-07 18:35:00,61.9,58.3,29.90,WNW,283,0.0,6.0,88,0.00,,,0.00,meteohub,2013-02-08 00:35:00,
2013-02-07 18:40:00,61.7,58.1,29.90,NE,52,0.0,6.0,88,0.00,,,0.00,meteohub,2013-02-08 00:40:00,
2013-02-07 18:45:00,61.5,57.9,29.90,WNW,302,0.0,6.0,88,0.00,,,0.00,meteohub,2013-02-08 00:45:00,
2013-02-07 18:50:00,61.3,57.7,29.90,WNW,287,1.0,4.0,88,0.00,,,0.00,meteohub,2013-02-08 00:50:00,
2013-02-07 18:55:00,61.2,57.6,29.91,WNW,284,2.0,4.0,88,0.00,,,0.00,meteohub,2013-02-08 00:55:00,
2013-02-07 19:00:00,61.2,57.6,29.91,WNW,285,0.0,3.0,88,0.00,,,0.00,meteohub,2013-02-08 01:00:00,
2013-02-07 19:06:00,61.2,57.9,29.91,WNW,301,0.0,3.0,89,0.00,,,0.00,meteohub,2013-02-08 01:06:00,
2013-02-07 19:11:00,61.0,57.7,29.91,WNW,301,0.0,3.0,89,0.00,,,0.00,meteohub,2013-02-08 01:11:00,
2013-02-07 19:16:00,61.0,57.7,29.91,WNW,301,0.0,1.0,89,0.00,,,0.00,meteohub,2013-02-08 01:16:00,
2013-02-07 19:21:00,60.8,57.6,29.91,NW,304,0.0,1.0,89,0.00,,,0.00,meteohub,2013-02-08 01:21:00,
2013-02-07 19:26:00,60.6,57.4,29.91,NW,317,0.0,4.0,89,0.00,,,0.00,meteohub,2013-02-08 01:26:00,
2013-02-07 19:31:00,60.6,57.4,29.91,NW,318,0.0,4.0,89,0.00,,,0.00,meteohub,2013-02-08 01:31:00,
2013-02-07 19:36:00,60.4,57.2,29.91,NW,318,0.0,4.0,89,0.00,,,0.00,meteohub,2013-02-08 01:36:00,
2013-02-07 19:41:00,60.4,57.6,29.92,NW,321,0.0,4.0,90,0.00,,,0.00,meteohub,2013-02-08 01:41:00,
2013-02-07 19:46:00,60.3,57.4,29.92,NW,322,0.0,2.0,90,0.00,,,0.00,meteohub,2013-02-08 01:46:00,
2013-02-07 19:52:00,60.3,57.4,29.92,NW,321,0.0,2.0,90,0.00,,,0.00,meteohub,2013-02-08 01:52:00,
2013-02-07 19:57:00,60.1,57.2,29.92,NW,321,0.0,1.0,90,0.00,,,0.00,meteohub,2013-02-08 01:57:00,
2013-02-07 20:02:00,60.1,57.4,29.92,NW,321,0.0,1.0,91,0.00,,,0.00,meteohub,2013-02-08 02:02:00,
2013-02-07 20:07:00,59.9,57.2,29.92,NW,321,0.0,1.0,91,0.00,,,0.00,meteohub,2013-02-08 02:07:00,
2013-02-07 20:12:00,59.7,57.0,29.92,NW,322,0.0,0.0,91,0.00,,,0.00,meteohub,2013-02-08 02:12:00,
2013-02-07 20:17:00,59.7,57.0,29.93,NW,321,0.0,0.0,91,0.00,,,0.00,meteohub,2013-02-08 02:17:00,
2013-02-07 20:22:00,59.5,56.8,29.92,NW,321,0.0,0.0,91,0.00,,,0.00,meteohub,2013-02-08 02:22:00,
2013-02-07 20:27:00,59.5,57.2,29.93,NW,321,0.0,1.0,92,0.00,,,0.00,meteohub,2013-02-08 02:27:00,
2013-02-07 20:32:00,59.5,57.2,29.93,NW,322,0.0,1.0,92,0.00,,,0.00,meteohub,2013-02-08 02:32:00,
2013-02-07 20:37:00,59.4,57.0,29.93,NW,321,0.0,1.0,92,0.00,,,0.00,meteohub,2013-02-08 02:37:00,
2013-02-07 20:42:00,59.4,57.0,29.93,NW,322,0.0,0.0,92,0.00,,,0.00,meteohub,2013-02-08 02:42:00,
2013-02-07 20:47:00,59.4,57.0,29.93,NW,322,0.0,0.0,92,0.00,,,0.00,meteohub,2013-02-08 02:47:00,
2013-02-07 20:52:00,59.4,57.0,29.93,NW,321,0.0,0.0,92,0.00,,,0.00,meteohub,2013-02-08 02:52:00,
2013-02-07 20:57:00,59.4,57.0,29.93,NW,322,0.0,0.0,92,0.00,,,0.00,meteohub,2013-02-08 02:57:00,
2013-02-07 21:02:00,59.4,57.0,29.93,NW,322,0.0,0.0,92,0.00,,,0.00,meteohub,2013-02-08 03:02:00,
2013-02-07 21:07:00,59.2,56.8,29.93,NW,321,0.0,1.0,92,0.00,,,0.00,meteohub,2013-02-08 03:07:00,
2013-02-07 21:12:00,59.2,56.8,29.93,NW,321,0.0,1.0,92,0.00,,,0.00,meteohub,2013-02-08 03:12:00,
2013-02-07 21:18:00,59.2,56.8,29.93,NW,321,0.0,1.0,92,0.00,,,0.00,meteohub,2013-02-08 03:18:00,
2013-02-07 21:23:00,59.2,57.2,29.94,NW,322,0.0,0.0,93,0.00,,,0.00,meteohub,2013-02-08 03:23:00,
2013-02-07 21:28:00,59.0,57.0,29.94,NW,321,0.0,0.0,93,0.00,,,0.00,meteohub,2013-02-08 03:28:00,
2013-02-07 21:33:00,58.8,56.5,29.94,NW,322,0.0,0.0,92,0.00,,,0.00,meteohub,2013-02-08 03:33:00,
2013-02-07 21:38:00,58.8,56.8,29.94,NW,322,0.0,0.0,93,0.00,,,0.00,meteohub,2013-02-08 03:38:00,
2013-02-07 21:44:00,58.8,56.8,29.94,NW,321,0.0,0.0,93,0.00,,,0.00,meteohub,2013-02-08 03:44:00,
2013-02-07 21:49:00,58.8,56.8,29.94,NW,321,0.0,0.0,93,0.00,,,0.00,meteohub,2013-02-08 03:49:00,
2013-02-07 21:54:00,58.8,56.8,29.95,NW,322,0.0,0.0,93,0.00,,,0.00,meteohub,2013-02-08 03:54:00,
2013-02-07 21:59:00,58.8,56.8,29.95,NW,321,0.0,0.0,93,0.00,,,0.00,meteohub,2013-02-08 03:59:00,
2013-02-07 22:04:00,58.8,56.8,29.95,NW,321,0.0,0.0,93,0.00,,,0.00,meteohub,2013-02-08 04:04:00,
2013-02-07 22:09:00,58.8,56.8,29.95,NW,321,0.0,0.0,93,0.00,,,0.00,meteohub,2013-02-08 04:09:00,
2013-02-07 22:14:00,58.6,56.7,29.95,NW,321,0.0,0.0,93,0.00,,,0.00,meteohub,2013-02-08 04:14:00,
2013-02-07 22:19:00,58.6,56.7,29.95,NW,321,0.0,0.0,93,0.00,,,0.00,meteohub,2013-02-08 04:19:00,
2013-02-07 22:24:00,58.6,56.7,29.95,NW,321,0.0,0.0,93,0.00,,,0.00,meteohub,2013-02-08 04:24:00,
2013-02-07 22:30:00,58.6,56.7,29.95,NW,322,0.0,0.0,93,0.00,,,0.00,meteohub,2013-02-08 04:30:00,
2013-02-07 22:35:00,58.6,56.7,29.94,NW,322,0.0,0.0,93,0.00,,,0.00,meteohub,2013-02-08 04:35:00,
2013-02-07 22:40:00,58.6,56.8,29.94,NW,321,0.0,0.0,94,0.00,,,0.00,meteohub,2013-02-08 04:40:00,
2013-02-07 22:45:00,58.6,56.7,29.94,North,359,1.0,1.0,93,0.00,,,0.00,meteohub,2013-02-08 04:45:00,
2013-02-07 22:50:00,58.6,56.7,29.94,East,83,1.0,3.0,93,0.00,,,0.00,meteohub,2013-02-08 04:50:00,
2013-02-07 22:55:00,58.6,56.7,29.94,East,83,0.0,3.0,93,0.00,,,0.00,meteohub,2013-02-08 04:55:00,
2013-02-07 23:00:00,58.5,56.5,29.94,East,83,0.0,3.0,93,0.00,,,0.00,meteohub,2013-02-08 05:00:00,
2013-02-07 23:01:00,58.5,56.5,29.94,East,83,0.0,3.0,93,0.00,,,0.00,meteohub,2013-02-08 05:01:00,
2013-02-07 23:06:00,58.3,56.3,29.94,East,83,1.0,2.0,93,0.00,,,0.00,meteohub,2013-02-08 05:06:00,
2013-02-07 23:11:00,58.3,56.3,29.93,East,83,0.0,2.0,93,0.00,,,0.00,meteohub,2013-02-08 05:11:00,
2013-02-07 23:16:00,58.3,56.3,29.94,East,83,2.0,2.0,93,0.00,,,0.00,meteohub,2013-02-08 05:16:00,
2013-02-07 23:22:00,58.3,56.3,29.94,East,89,1.0,3.0,93,0.00,,,0.00,meteohub,2013-02-08 05:22:00,
2013-02-07 23:27:00,58.1,56.1,29.94,East,87,1.0,3.0,93,0.00,,,0.00,meteohub,2013-02-08 05:27:00,
2013-02-07 23:32:00,58.1,56.1,29.94,East,86,0.0,3.0,93,0.00,,,0.00,meteohub,2013-02-08 05:32:00,
2013-02-07 23:37:00,57.9,55.9,29.94,East,86,0.0,2.0,93,0.00,,,0.00,meteohub,2013-02-08 05:37:00,
2013-02-07 23:42:00,57.9,55.9,29.94,East,86,0.0,2.0,93,0.00,,,0.00,meteohub,2013-02-08 05:42:00,
2013-02-07 23:47:00,57.9,55.9,29.94,East,86,0.0,0.0,93,0.00,,,0.00,meteohub,2013-02-08 05:47:00,
2013-02-07 23:52:00,57.9,55.9,29.94,East,86,0.0,0.0,93,0.00,,,0.00,meteohub,2013-02-08 05:52:00,
2013-02-07 23:57:00,57.9,55.9,29.94,East,86,0.0,1.0,93,0.00,,,0.00,meteohub,2013-02-08 05:57:00,